Orbital Elements at Epoch 2459000.5 (2020-May-31.0) TDB
Reference: JPL 13 (heliocentric ecliptic J2000)
Element | Value | Uncertainty (1-sigma) | Units |
e | .1630848942720434 | 4.9365e-08 | |
a | 2.294444616755839 | 7.0893e-09 | au |
q | 1.920255359019154 | 1.1261e-07 | au |
i | 3.052647899107081 | 5.6495e-06 | deg |
node | 27.89416489846478 | 6.367e-05 | deg |
peri | 18.59965321128407 | 6.5368e-05 | deg |
M | 313.6088084098037 | 1.2215e-05 | deg |
tp | 2459164.086636384117 (2020-Nov-10.58663638) | 4.3021e-05 | TDB |
period | 1269.447648995664 3.48 | 5.8835e-06 1.611e-08 | d yr |
n | .283587905562563 | 1.3143e-09 | deg/d |
Q | 2.668633874492524 | 8.2455e-09 | au |
|
| | Orbit Determination Parameters
Additional Information
|